Location: Castelbiague
(43.0361°N, 0.9246°E)
Time: 14:35:54
(UTC+00:00)

SJ-6B - Pass Details

Date: 17 June 2021
Orbit: 508 x 581 km, 97.6° (Epoch: 30 July)

Event Time Altitude Azimuth Distance (km) Brightness Sun altitude
Rises 20:03:01 0° 178° (S) 2,785 6.0 -4.5°
Reaches altitude 10° 20:05:13 10° 184° (S) 1,887 5.2 -4.8°
Maximum altitude 20:09:12 51° 260° (W) 729 3.8 -5.4°
Drops below altitude 10° 20:13:11 10° 337° (NNW) 1,877 6.7 -5.9°
Sets 20:15:22 0° 343° (NNW) 2,768 7.5 -6.2°
